Time,TemperatureF,DewpointF,PressureIn,WindDirection,WindDirectionDegrees,WindSpeedMPH,WindSpeedGustMPH,Humidity,HourlyPrecipIn,Conditions,Clouds,dailyrainin,SoftwareType,DateUTC
2013-04-01 10:36:00,56.9,53.1,29.83,North,352,0.0,0.0,87,0.00,,,0.00,WUHU216DAVISVP2,2013-04-01 14:36:00,
2013-04-01 10:37:00,56.9,53.1,29.83,North,352,0.0,0.0,87,0.00,,,0.00,WUHU216DAVISVP2,2013-04-01 14:37:00,
2013-04-01 10:42:00,57.0,53.2,29.83,North,349,0.0,2.0,87,0.00,,,0.00,WUHU216DAVISVP2,2013-04-01 14:42:00,
2013-04-01 10:47:00,57.2,53.4,29.82,WNW,288,1.0,2.0,87,0.00,,,0.00,WUHU216DAVISVP2,2013-04-01 14:47:00,
2013-04-01 10:52:00,57.2,53.4,29.82,WNW,288,0.0,2.0,87,0.00,,,0.00,WUHU216DAVISVP2,2013-04-01 14:52:00,
2013-04-01 10:57:00,58.0,54.2,29.82,WNW,294,4.0,4.0,87,0.00,,,0.00,WUHU216DAVISVP2,2013-04-01 14:57:00,
2013-04-01 11:03:00,58.0,54.2,29.82,WNW,296,2.0,4.0,87,0.00,,,0.00,WUHU216DAVISVP2,2013-04-01 15:03:00,
2013-04-01 11:08:00,59.2,55.3,29.82,SSE,160,0.0,4.0,87,0.00,,,0.00,WUHU216DAVISVP2,2013-04-01 15:08:00,
2013-04-01 11:12:00,59.5,55.6,29.82,WSW,240,0.0,2.0,87,0.00,,,0.00,WUHU216DAVISVP2,2013-04-01 15:12:00,
2013-04-01 11:18:00,59.9,56.0,29.82,SW,216,1.0,4.0,87,0.00,,,0.00,WUHU216DAVISVP2,2013-04-01 15:18:00,
2013-04-01 11:23:00,59.9,56.0,29.82,North,0,4.0,4.0,87,0.00,,,0.00,WUHU216DAVISVP2,2013-04-01 15:23:00,
2013-04-01 11:28:00,60.4,56.5,29.82,NW,312,2.0,6.0,87,0.00,,,0.00,WUHU216DAVISVP2,2013-04-01 15:28:00,
2013-04-01 11:33:00,60.7,56.8,29.82,WNW,288,0.0,7.0,87,0.00,,,0.00,WUHU216DAVISVP2,2013-04-01 15:33:00,
2013-04-01 11:38:00,61.2,52.1,29.82,North,350,2.0,7.0,72,0.00,,,0.00,WUHU216DAVISVP2,2013-04-01 15:38:00,
2013-04-01 11:43:00,61.3,52.3,29.82,NNW,332,2.0,6.0,72,0.00,,,0.00,WUHU216DAVISVP2,2013-04-01 15:43:00,
2013-04-01 11:48:00,61.3,52.3,29.82,NNW,332,4.0,6.0,72,0.00,,,0.00,WUHU216DAVISVP2,2013-04-01 15:48:00,
2013-04-01 11:53:00,62.4,52.6,29.82,SE,141,2.0,4.0,70,0.00,,,0.00,WUHU216DAVISVP2,2013-04-01 15:53:00,
2013-04-01 11:58:00,62.9,53.1,29.82,West,261,0.0,4.0,70,0.00,,,0.00,WUHU216DAVISVP2,2013-04-01 15:58:00,
2013-04-01 12:03:00,62.9,53.1,29.81,West,261,0.0,4.0,70,0.00,,,0.00,WUHU216DAVISVP2,2013-04-01 16:03:00,
2013-04-01 12:08:00,62.9,53.1,29.81,North,0,1.0,1.0,70,0.00,,,0.00,WUHU216DAVISVP2,2013-04-01 16:08:00,
2013-04-01 12:13:00,62.9,53.1,29.81,North,0,1.0,1.0,70,0.00,,,0.00,WUHU216DAVISVP2,2013-04-01 16:13:00,
2013-04-01 13:10:00,67.6,51.0,29.79,NE,41,4.0,4.0,55,0.00,,,0.00,WUHU216DAVISVP2,2013-04-01 17:10:00,
2013-04-01 13:15:00,67.3,50.7,29.78,SE,134,6.0,9.0,55,0.00,,,0.00,WUHU216DAVISVP2,2013-04-01 17:15:00,
2013-04-01 13:20:00,67.3,49.1,29.78,South,179,2.0,9.0,52,0.00,,,0.00,WUHU216DAVISVP2,2013-04-01 17:20:00,
2013-04-01 13:25:00,67.3,49.1,29.78,South,179,2.0,2.0,52,0.00,,,0.00,WUHU216DAVISVP2,2013-04-01 17:25:00,
2013-04-01 14:35:00,70.1,47.1,29.76,NW,319,2.0,2.0,44,0.00,,,0.00,WUHU216DAVISVP2,2013-04-01 18:35:00,
2013-04-01 14:40:00,70.1,46.5,29.76,NW,318,4.0,16.0,43,0.00,,,0.00,WUHU216DAVISVP2,2013-04-01 18:40:00,
2013-04-01 14:45:00,70.4,46.1,29.75,NNW,335,8.0,16.0,42,0.00,,,0.00,WUHU216DAVISVP2,2013-04-01 18:45:00,
2013-04-01 14:50:00,70.9,45.9,29.75,SW,224,2.0,10.0,41,0.00,,,0.00,WUHU216DAVISVP2,2013-04-01 18:50:00,
2013-04-01 14:56:00,71.3,44.2,29.75,North,0,0.0,9.0,38,0.00,,,0.00,WUHU216DAVISVP2,2013-04-01 18:56:00,
2013-04-01 15:01:00,71.6,45.3,29.74,North,352,9.0,11.0,39,0.00,,,0.00,WUHU216DAVISVP2,2013-04-01 19:01:00,
2013-04-01 15:06:00,71.6,45.3,29.74,North,359,4.0,13.0,39,0.00,,,0.00,WUHU216DAVISVP2,2013-04-01 19:06:00,
2013-04-01 15:11:00,71.5,43.8,29.74,SSE,165,1.0,13.0,37,0.00,,,0.00,WUHU216DAVISVP2,2013-04-01 19:11:00,
2013-04-01 15:16:00,71.5,43.1,29.74,NNW,329,2.0,10.0,36,0.00,,,0.00,WUHU216DAVISVP2,2013-04-01 19:16:00,
2013-04-01 15:21:00,71.6,45.2,29.74,NNW,340,0.0,10.0,39,0.00,,,0.00,WUHU216DAVISVP2,2013-04-01 19:21:00,
2013-04-01 15:27:00,71.1,42.6,29.74,NNW,339,7.0,10.0,36,0.00,,,0.00,WUHU216DAVISVP2,2013-04-01 19:27:00,
2013-04-01 15:32:00,70.6,42.9,29.74,NNW,335,4.0,10.0,37,0.00,,,0.00,WUHU216DAVISVP2,2013-04-01 19:32:00,
2013-04-01 15:37:00,70.1,42.5,29.74,NW,316,2.0,13.0,37,0.00,,,0.00,WUHU216DAVISVP2,2013-04-01 19:37:00,
2013-04-01 15:42:00,69.6,41.3,29.74,NNW,346,2.0,13.0,36,0.00,,,0.00,WUHU216DAVISVP2,2013-04-01 19:42:00,
2013-04-01 15:47:00,69.4,42.5,29.74,North,359,4.0,13.0,38,0.00,,,0.00,WUHU216DAVISVP2,2013-04-01 19:47:00,
2013-04-01 15:52:00,69.8,42.9,29.74,NNW,343,2.0,10.0,38,0.00,,,0.00,WUHU216DAVISVP2,2013-04-01 19:52:00,
2013-04-01 15:57:00,69.9,43.7,29.74,South,172,2.0,10.0,39,0.00,,,0.00,WUHU216DAVISVP2,2013-04-01 19:57:00,
2013-04-01 16:02:00,69.6,42.7,29.74,North,350,2.0,10.0,38,0.00,,,0.00,WUHU216DAVISVP2,2013-04-01 20:02:00,
2013-04-01 16:07:00,69.4,43.2,29.74,NW,315,1.0,10.0,39,0.00,,,0.00,WUHU216DAVISVP2,2013-04-01 20:07:00,
2013-04-01 16:12:00,69.1,43.0,29.74,NNW,346,6.0,10.0,39,0.00,,,0.00,WUHU216DAVISVP2,2013-04-01 20:12:00,
2013-04-01 16:17:00,69.1,43.0,29.74,North,352,2.0,10.0,39,0.00,,,0.00,WUHU216DAVISVP2,2013-04-01 20:17:00,
2013-04-01 16:22:00,69.4,43.2,29.74,NW,306,1.0,9.0,39,0.00,,,0.00,WUHU216DAVISVP2,2013-04-01 20:22:00,
2013-04-01 16:27:00,69.6,42.7,29.74,NW,323,6.0,9.0,38,0.00,,,0.00,WUHU216DAVISVP2,2013-04-01 20:27:00,
2013-04-01 16:32:00,70.3,44.7,29.74,North,0,6.0,8.0,40,0.00,,,0.00,WUHU216DAVISVP2,2013-04-01 20:32:00,
2013-04-01 16:37:00,70.6,45.7,29.74,East,82,0.0,8.0,41,0.00,,,0.00,WUHU216DAVISVP2,2013-04-01 20:37:00,
2013-04-01 16:42:00,70.9,43.9,29.74,North,1,1.0,8.0,38,0.00,,,0.00,WUHU216DAVISVP2,2013-04-01 20:42:00,
2013-04-01 16:48:00,70.3,42.6,29.74,SSW,209,1.0,9.0,37,0.00,,,0.00,WUHU216DAVISVP2,2013-04-01 20:48:00,
2013-04-01 16:53:00,69.9,43.0,29.74,ENE,75,2.0,9.0,38,0.00,,,0.00,WUHU216DAVISVP2,2013-04-01 20:53:00,
2013-04-01 16:58:00,69.4,41.1,29.74,West,281,4.0,11.0,36,0.00,,,0.00,WUHU216DAVISVP2,2013-04-01 20:58:00,
2013-04-01 17:03:00,69.4,41.8,29.74,North,6,6.0,11.0,37,0.00,,,0.00,WUHU216DAVISVP2,2013-04-01 21:03:00,
2013-04-01 17:08:00,69.3,41.7,29.74,NW,325,8.0,8.0,37,0.00,,,0.00,WUHU216DAVISVP2,2013-04-01 21:08:00,
2013-04-01 17:13:00,69.4,41.1,29.74,North,353,1.0,13.0,36,0.00,,,0.00,WUHU216DAVISVP2,2013-04-01 21:13:00,
2013-04-01 17:18:00,69.9,40.8,29.74,North,0,2.0,13.0,35,0.00,,,0.00,WUHU216DAVISVP2,2013-04-01 21:18:00,
2013-04-01 17:23:00,69.9,40.8,29.74,North,4,6.0,9.0,35,0.00,,,0.00,WUHU216DAVISVP2,2013-04-01 21:23:00,
2013-04-01 17:28:00,69.4,39.6,29.74,NNW,337,7.0,9.0,34,0.00,,,0.00,WUHU216DAVISVP2,2013-04-01 21:28:00,
2013-04-01 17:33:00,68.9,39.9,29.74,NW,316,15.0,15.0,35,0.00,,,0.00,WUHU216DAVISVP2,2013-04-01 21:33:00,
2013-04-01 17:38:00,68.9,40.7,29.74,NW,313,6.0,15.0,36,0.00,,,0.00,WUHU216DAVISVP2,2013-04-01 21:38:00,
2013-04-01 17:43:00,69.4,40.4,29.74,North,354,1.0,13.0,35,0.00,,,0.00,WUHU216DAVISVP2,2013-04-01 21:43:00,
2013-04-01 17:48:00,69.6,40.6,29.75,North,0,6.0,15.0,35,0.00,,,0.00,WUHU216DAVISVP2,2013-04-01 21:48:00,
2013-04-01 17:53:00,69.6,40.6,29.75,North,0,4.0,15.0,35,0.00,,,0.00,WUHU216DAVISVP2,2013-04-01 21:53:00,
2013-04-01 17:58:00,69.1,40.1,29.75,NNW,329,6.0,8.0,35,0.00,,,0.00,WUHU216DAVISVP2,2013-04-01 21:58:00,
2013-04-01 18:03:00,69.1,40.1,29.75,NNW,335,7.0,7.0,35,0.00,,,0.00,WUHU216DAVISVP2,2013-04-01 22:03:00,
2013-04-01 18:08:00,68.4,40.2,29.75,NNW,335,1.0,7.0,36,0.00,,,0.00,WUHU216DAVISVP2,2013-04-01 22:08:00,
2013-04-01 18:13:00,68.4,40.9,29.75,NNW,336,6.0,7.0,37,0.00,,,0.00,WUHU216DAVISVP2,2013-04-01 22:13:00,
2013-04-01 18:18:00,68.4,40.9,29.76,NW,323,13.0,13.0,37,0.00,,,0.00,WUHU216DAVISVP2,2013-04-01 22:18:00,
2013-04-01 18:23:00,68.4,40.9,29.76,NW,311,2.0,13.0,37,0.00,,,0.00,WUHU216DAVISVP2,2013-04-01 22:23:00,
2013-04-01 18:28:00,67.3,40.0,29.76,North,359,11.0,13.0,37,0.00,,,0.00,WUHU216DAVISVP2,2013-04-01 22:28:00,
2013-04-01 18:33:00,66.9,40.3,29.77,SSW,213,6.0,11.0,38,0.00,,,0.00,WUHU216DAVISVP2,2013-04-01 22:33:00,
2013-04-01 18:38:00,66.8,39.5,29.77,North,352,2.0,11.0,37,0.00,,,0.00,WUHU216DAVISVP2,2013-04-01 22:38:00,
2013-04-01 18:43:00,66.8,39.5,29.77,NNW,329,1.0,7.0,37,0.00,,,0.00,WUHU216DAVISVP2,2013-04-01 22:43:00,
2013-04-01 18:48:00,66.8,39.5,29.78,NNW,332,4.0,4.0,37,0.00,,,0.00,WUHU216DAVISVP2,2013-04-01 22:48:00,
2013-04-01 18:53:00,66.8,39.5,29.78,North,357,4.0,4.0,37,0.00,,,0.00,WUHU216DAVISVP2,2013-04-01 22:53:00,
2013-04-01 18:58:00,65.6,39.8,29.78,WNW,294,4.0,8.0,39,0.00,,,0.00,WUHU216DAVISVP2,2013-04-01 22:58:00,
2013-04-01 19:03:00,65.6,39.8,29.78,NNW,333,2.0,8.0,39,0.00,,,0.00,WUHU216DAVISVP2,2013-04-01 23:03:00,
2013-04-01 19:08:00,65.6,39.8,29.78,NNW,329,0.0,4.0,39,0.00,,,0.00,WUHU216DAVISVP2,2013-04-01 23:08:00,
2013-04-01 19:13:00,65.6,39.8,29.78,NNW,328,0.0,2.0,39,0.00,,,0.00,WUHU216DAVISVP2,2013-04-01 23:13:00,
2013-04-01 19:18:00,64.7,40.3,29.78,West,277,0.0,0.0,41,0.00,,,0.00,WUHU216DAVISVP2,2013-04-01 23:18:00,
2013-04-01 19:23:00,64.7,41.0,29.78,North,0,6.0,6.0,42,0.00,,,0.00,WUHU216DAVISVP2,2013-04-01 23:23:00,
2013-04-01 19:28:00,64.7,41.0,29.78,North,0,6.0,6.0,42,0.00,,,0.00,WUHU216DAVISVP2,2013-04-01 23:28:00,
2013-04-01 19:33:00,64.7,41.0,29.78,North,0,6.0,6.0,42,0.00,,,0.00,WUHU216DAVISVP2,2013-04-01 23:33:00,
2013-04-01 22:51:00,55.1,38.3,29.88,NNW,340,7.0,7.0,53,0.00,,,0.00,WUHU216DAVISVP2,2013-04-02 02:51:00,
2013-04-01 22:56:00,55.1,37.8,29.88,North,7,8.0,8.0,52,0.00,,,0.00,WUHU216DAVISVP2,2013-04-02 02:56:00,
2013-04-01 23:02:00,55.0,37.7,29.89,North,0,6.0,10.0,52,0.00,,,0.00,WUHU216DAVISVP2,2013-04-02 03:02:00,
2013-04-01 23:07:00,54.7,37.4,29.89,North,1,0.0,10.0,52,0.00,,,0.00,WUHU216DAVISVP2,2013-04-02 03:07:00,
2013-04-01 23:12:00,54.4,37.1,29.89,NNW,347,1.0,8.0,52,0.00,,,0.00,WUHU216DAVISVP2,2013-04-02 03:12:00,
2013-04-01 23:17:00,53.8,36.1,29.90,ENE,72,8.0,8.0,51,0.00,,,0.00,WUHU216DAVISVP2,2013-04-02 03:17:00,
2013-04-01 23:22:00,53.3,35.6,29.90,North,352,10.0,10.0,51,0.00,,,0.00,WUHU216DAVISVP2,2013-04-02 03:22:00,
2013-04-01 23:27:00,52.8,35.2,29.90,North,0,4.0,10.0,51,0.00,,,0.00,WUHU216DAVISVP2,2013-04-02 03:27:00,
2013-04-01 23:32:00,52.0,34.4,29.91,NNW,342,8.0,14.0,51,0.00,,,0.00,WUHU216DAVISVP2,2013-04-02 03:32:00,
2013-04-01 23:37:00,51.3,33.8,29.91,NNW,344,9.0,14.0,51,0.00,,,0.00,WUHU216DAVISVP2,2013-04-02 03:37:00,
2013-04-01 23:42:00,50.8,33.8,29.91,NW,304,6.0,10.0,52,0.00,,,0.00,WUHU216DAVISVP2,2013-04-02 03:42:00,
2013-04-01 23:47:00,50.4,33.4,29.93,NNW,340,2.0,10.0,52,0.00,,,0.00,WUHU216DAVISVP2,2013-04-02 03:47:00,
2013-04-01 23:52:00,50.1,33.1,29.93,NNW,346,2.0,10.0,52,0.00,,,0.00,WUHU216DAVISVP2,2013-04-02 03:52:00,
2013-04-01 23:57:00,49.9,33.0,29.93,NNE,27,2.0,10.0,52,0.00,,,0.00,WUHU216DAVISVP2,2013-04-02 03:57:00,